Find Starlink 1962

NORAD ID: 47563 Int'l Des: 2021-009 Owner: SPXS Country: US Constellation: starlink operational
LEOCIRCULAR

現在のビュー

3D地球を読み込み中...

About Starlink 1962

Starlink 1962 (NORAD 47563) is a starlink constellation satellite (v1.0) launched Feb 4, 2021 by SPXS of US. It operates in LEO, CIRCULAR orbit with a mass of 260.00 kg.

Starlink 1962について

説明を読み込み中...

次回通過

Passes for default location (London). Set your location on the main map for personalized predictions.

高度履歴

Loading altitude history...

軌道要素

1 47563U 21009R 26170.25002315 .00284711 42875-4 71865-3 0 9994
2 47563 53.0337 210.9988 0004186 19.3170 50.4536 15.95101202 5852
Epoch: Jun 19, 2026 • Age: 9 hours

現在のステータス

高度 284.8 km
速度 7.74 km/s
衛星直下点 14.39°N, 90.25°E
打ち上げ日 Feb 4, 2021
運用期間 5.3 years
タイプ internet

技術仕様

分類 Payload
質量 260.00 kg
乾燥質量 248.00 kg
総質量 260.00 kg
長さ 0.20 m
直径 2.80 m
スパン 9.00 m
形状 Box + pan
製造者 SPXS
バスタイプ Starlink
フェーズステータス In Orbit
所有者/国 SPXS/US

Most Searched